Simultaneous Nadir Overpasses (SNOs) Predictions

Prediction of SNOs between AQUA and METOP-A Satellite Orbit:

Table of predicted SNOs for the next 14.0 days since TLE Epoch: 3/7/2015
Index Date (AQUA) Time (AQUA) Lat,Lon (AQUA) SZA (AQUA ) Date (METOP-A) Time (METOP-A) Lat,Lon (METOP-A) SZA (METOP-A ) Distance(km) Time Diff (sec)
1 03/08/2015 02:26:43 73.80, 137.72 78.94 03/08/2015 02:25:56 73.80, 137.68 78.95 1.57 47
2 03/08/2015 03:16:10 -73.88, -54.81 100.99 03/08/2015 03:16:36 -73.89, -54.78 100.99 1.21 26
3 03/10/2015 22:00:59 73.81,-155.85 77.84 03/10/2015 22:00:18 73.81,-155.87 77.86 0.94 41
4 03/10/2015 22:50:26 -73.89, 11.62 102.09 03/10/2015 22:50:59 -73.86, 11.57 102.12 3.24 33
5 03/13/2015 17:35:13 73.81, -89.41 76.73 03/13/2015 17:34:39 73.82, -89.44 76.75 1.68 34
6 03/13/2015 18:24:40 -73.89, 78.06 103.21 03/13/2015 18:25:20 -73.88, 78.01 103.22 2.09 40
7 03/16/2015 13:09:27 73.81, -22.96 75.61 03/16/2015 13:09:01 73.83, -23.03 75.64 2.81 26
8 03/16/2015 13:58:54 -73.88, 144.52 104.33 03/16/2015 13:59:42 -73.88, 144.43 104.33 2.91 48
9 03/19/2015 07:54:03 -73.30,-123.06 106.04 03/19/2015 07:52:55 -73.26,-125.27 105.99 71.04 68
10 03/19/2015 08:43:41 73.86, 43.39 74.54 03/19/2015 08:43:22 73.87, 43.47 74.55 2.95 19
11 03/19/2015 09:33:08 -73.93,-149.12 105.40 03/19/2015 09:34:03 -73.93,-149.05 105.41 2.13 55




NCC Satellite Simultaneous Nadir Overpasses (SNOs) Prediction Service
